Temp
17 18 19 20 20 20 20 20 20 19 18 18 18 18 16 15 14 14 14 13 12 12 11 11 10 10 10 11 11 11 11 11 11 11 10 10 7 7 7 8 9 9 10 10
18 18 19 19 20 20 19 20 20 19 18 18 19 19 17 15 15 15 14 13 13 12 12 11 11 11 10 10 11 11 11 11 11 11 11 9 8 8 9 9 10 10 10 10
18 19 19 19 19 20 20 20 21 20 19 19 19 20 19 16 15 15 15 14 14 13 13 12 11 11 10 10 11 11 11 11 11 10 10 10 10 10 10 9 10 10 10 10
18 19 19 19 19 19 20 20 20 19 19 21 20 16 16 18 16 15 15 15 15 14 13 13 13 12 11 10 10 10 10 10 10 10 10 10 10 8 8 8 8 9 10 10
18 18 18 18 19 19 20 20 20 20 19 20 21 21 17 18 17 16 16 15 15 14 14 14 13 13 12 11 10 11 11 10 10 10 10 10 10 9 10 10 9 10 10 10
18 18 18 18 18 19 19 19 19 19 20 21 22 22 16 15 19 18 17 16 16 15 15 14 14 14 13 12 11 10 12 11 11 11 10 10 10 10 9 10 10 9 10 10
17 17 17 17 18 19 19 19 20 21 22 22 22 22 18 16 19 19 19 18 17 16 15 15 14 14 13 12 12 12 13 12 11 11 11 10 10 10 10 10 10 10 9 9
18 19 18 17 18 19 19 19 20 21 23 23 22 22 21 19 19 19 19 19 17 17 16 16 15 14 13 13 14 14 13 13 12 12 11 11 11 10 10 11 11 8 8 10
20 19 19 18 18 18 19 19 20 21 22 23 23 21 21 21 20 19 19 19 18 17 17 16 15 15 14 14 14 14 13 13 12 12 12 12 12 11 11 11 11 10 10 10
18 19 19 18 18 18 19 20 20 21 21 22 23 22 22 20 20 20 19 18 18 17 17 17 16 15 14 13 13 13 13 13 13 13 13 13 13 12 12 12 11 11 11 11
17 18 19 18 18 19 18 19 20 21 21 22 23 22 22 21 20 20 19 18 18 18 17 17 16 15 15 13 12 14 13 14 14 13 13 12 11 12 12 12 12 12 12 11
17 18 19 19 18 18 19 19 20 20 21 21 21 22 21 20 19 19 19 18 17 18 18 17 16 15 15 13 13 14 14 14 13 12 13 11 9 11 12 12 12 12 12 11
17 17 19 20 19 19 19 19 20 21 21 21 22 22 21 20 19 18 18 17 18 18 17 17 16 15 14 14 15 14 14 13 13 13 13 13 14 13 13 12 12 12 12 12
16 18 19 21 20 20 19 18 19 20 21 22 22 21 20 19 18 17 17 16 17 18 18 16 15 14 14 16 15 14 14 14 13 14 13 13 13 13 13 12 13 12 12 12
16 18 18 19 19 20 20 19 19 20 20 21 22 21 20 20 19 17 16 16 16 18 17 17 16 16 15 15 15 14 14 14 14 14 14 13 13 13 12 12 12 12 12 12
16 17 18 19 19 19 19 20 20 20 20 20 20 20 19 18 18 17 16 15 16 17 17 17 16 15 15 15 14 14 14 14 14 14 13 13 13 13 13 12 12 12 12 12
17 18 18 19 19 19 19 19 20 20 20 20 20 19 18 18 18 16 16 15 15 15 16 16 15 15 15 15 15 14 14 14 14 13 13 13 13 12 12 12 12 12 11 11
17 18 18 19 19 19 19 19 20 19 19 19 19 18 17 18 17 16 16 15 15 16 16 16 15 15 15 15 15 14 14 14 13 13 13 12 12 12 13 13 13 13 12 12
17 18 18 19 18 19 19 19 18 19 19 19 19 19 17 17 17 15 16 15 15 17 16 15 15 15 15 14 14 14 14 13 13 12 13 12 12 12 12 12 12 12 12 12
17 17 18 19 19 20 20 19 19 18 18 18 18 18 17 16 16 16 15 14 15 16 15 15 15 14 15 13 14 13 13 13 11 11 11 11 11 11 11 11 11 11 11 11
17 18 18 18 19 19 19 18 17 18 13 15 16 16 17 16 17 16 14 13 14 14 14 14 15 14 14 13 13 13 12 12 11 11 11 11 11 11 10 10 10 10 10 10
17 17 18 19 19 19 17 17 18 16 15 15 16 16 15 15 15 15 14 13 13 15 12 14 13 14 14 13 13 13 12 12 12 12 12 11 11 11 11 10 10 10 10 10
17 18 18 19 18 18 17 17 16 16 15 15 17 17 15 15 14 14 13 13 14 14 13 12 12 13 13 13 12 12 12 11 11 11 11 11 11 10 10 10 10 9 9 8
17 16 16 16 17 17 16 17 16 16 16 17 17 17 15 14 14 14 13 12 12 12 11 11 11 11 12 12 12 11 11 11 11 11 11 10 10 10 10 10 9 9 8 9
16 17 17 17 16 17 16 16 15 15 17 17 16 15 14 13 13 13 13 12 12 12 11 11 11 10 11 12 12 11 11 11 11 10 10 10 9 9 9 9 8 8 8 8
16 16 17 17 17 16 16 14 15 15 16 16 16 14 13 13 13 13 13 12 12 12 12 12 12 12 12 12 11 11 11 10 10 10 9 9 9 9 9 7 6 6 6 6
Height
3194 3197 3195 3193 3192 3190 3191 3194 3196 3200 3201 3200 3199 3199 3201 3202 3204 3205 3207 3207 3209 3211 3214 3215 3215 3217 3218 3216 3217 3218 3220 3222 3223 3224 3224 3224 3226 3228 3229 3227 3228 3227 3227 3226
3193 3191 3193 3193 3194 3195 3196 3194 3193 3198 3199 3198 3198 3199 3198 3200 3201 3202 3205 3206 3208 3210 3213 3214 3214 3216 3217 3216 3217 3218 3219 3221 3223 3223 3224 3225 3227 3229 3228 3228 3227 3227 3227 3227
3186 3189 3191 3192 3193 3194 3196 3193 3192 3195 3197 3195 3196 3195 3194 3196 3199 3200 3202 3205 3206 3207 3210 3212 3213 3214 3216 3217 3216 3217 3219 3220 3222 3222 3223 3224 3225 3226 3227 3227 3228 3227 3227 3227
3185 3186 3188 3189 3191 3193 3192 3192 3192 3196 3196 3188 3191 3189 3195 3193 3195 3193 3197 3202 3204 3205 3207 3211 3214 3215 3216 3217 3216 3217 3218 3219 3220 3221 3222 3223 3224 3226 3228 3228 3229 3228 3227 3227
3183 3184 3186 3187 3189 3192 3191 3191 3193 3194 3194 3188 3182 3182 3190 3195 3198 3193 3192 3197 3201 3204 3207 3211 3214 3216 3218 3217 3217 3216 3217 3218 3219 3220 3221 3222 3224 3225 3226 3227 3227 3227 3227 3227
3180 3181 3183 3185 3187 3189 3191 3191 3193 3193 3190 3184 3176 3177 3187 3187 3188 3192 3193 3193 3199 3203 3206 3209 3213 3216 3216 3217 3217 3215 3216 3217 3218 3220 3220 3221 3223 3224 3226 3225 3226 3226 3228 3227
3177 3178 3180 3182 3184 3186 3188 3190 3188 3186 3183 3177 3170 3173 3176 3185 3190 3191 3191 3190 3195 3201 3205 3208 3210 3213 3214 3214 3214 3215 3215 3216 3217 3218 3219 3220 3221 3222 3223 3224 3225 3225 3226 3226
3170 3173 3176 3178 3180 3182 3184 3186 3182 3180 3171 3166 3167 3173 3180 3182 3186 3187 3186 3190 3193 3199 3203 3205 3208 3209 3210 3211 3212 3213 3214 3215 3216 3217 3217 3218 3219 3221 3221 3223 3224 3225 3227 3226
3163 3165 3169 3174 3176 3180 3180 3182 3182 3175 3169 3165 3166 3173 3176 3179 3183 3184 3186 3189 3192 3196 3201 3204 3207 3209 3209 3209 3211 3212 3212 3213 3214 3215 3215 3216 3217 3218 3220 3221 3222 3223 3224 3225
3164 3165 3166 3170 3174 3176 3176 3177 3178 3176 3173 3169 3165 3170 3173 3179 3181 3182 3186 3188 3191 3195 3198 3202 3205 3208 3209 3209 3209 3210 3210 3212 3213 3214 3215 3215 3215 3216 3217 3218 3220 3221 3221 3222
3164 3165 3164 3168 3169 3171 3174 3175 3175 3172 3171 3169 3166 3167 3168 3173 3178 3181 3183 3187 3190 3194 3196 3200 3203 3206 3208 3209 3211 3212 3211 3210 3213 3214 3214 3213 3213 3215 3216 3217 3219 3220 3220 3220
3161 3161 3160 3162 3165 3168 3168 3170 3170 3171 3171 3169 3167 3166 3170 3172 3178 3182 3182 3186 3188 3192 3195 3198 3201 3203 3206 3207 3206 3207 3210 3211 3212 3214 3212 3209 3204 3212 3214 3215 3217 3218 3218 3219
3159 3161 3157 3156 3162 3164 3165 3167 3167 3167 3166 3165 3165 3166 3168 3172 3178 3180 3182 3183 3184 3188 3192 3195 3199 3198 3202 3201 3204 3207 3209 3210 3211 3211 3211 3211 3210 3212 3212 3213 3215 3215 3216 3217
3157 3157 3154 3150 3154 3157 3162 3165 3165 3164 3161 3161 3162 3166 3167 3172 3176 3178 3180 3182 3183 3186 3189 3192 3194 3194 3196 3200 3205 3207 3209 3209 3210 3210 3210 3210 3210 3211 3210 3211 3212 3213 3213 3214
3155 3154 3154 3152 3152 3153 3154 3158 3161 3162 3163 3161 3160 3161 3165 3168 3170 3175 3178 3181 3182 3184 3187 3189 3190 3192 3197 3201 3203 3206 3207 3209 3209 3209 3209 3208 3208 3208 3209 3209 3209 3210 3211 3211
3153 3153 3152 3151 3153 3155 3155 3154 3155 3159 3162 3162 3162 3163 3164 3167 3170 3173 3177 3180 3181 3183 3186 3188 3190 3193 3197 3200 3203 3206 3208 3208 3208 3207 3207 3206 3206 3207 3206 3206 3207 3207 3207 3207
3150 3149 3149 3150 3152 3153 3154 3153 3154 3155 3158 3160 3162 3164 3165 3167 3168 3171 3176 3179 3181 3183 3185 3187 3190 3193 3197 3200 3202 3204 3206 3206 3206 3204 3203 3203 3203 3203 3204 3204 3204 3204 3203 3203
3147 3146 3147 3146 3148 3150 3147 3147 3149 3152 3156 3158 3160 3160 3164 3165 3168 3171 3175 3178 3180 3181 3184 3187 3190 3193 3197 3199 3201 3202 3204 3204 3203 3200 3198 3199 3199 3200 3200 3200 3199 3198 3198 3197
3144 3145 3144 3143 3146 3144 3145 3147 3150 3151 3154 3156 3155 3159 3161 3164 3169 3172 3175 3177 3177 3180 3183 3186 3189 3191 3195 3201 3202 3201 3201 3201 3199 3198 3196 3196 3197 3197 3197 3196 3196 3194 3193 3191
3141 3143 3142 3141 3141 3139 3139 3141 3144 3148 3152 3154 3154 3156 3159 3162 3167 3170 3173 3174 3175 3179 3182 3185 3186 3189 3191 3194 3200 3198 3199 3198 3198 3198 3197 3197 3198 3197 3196 3195 3193 3191 3189 3187
3136 3137 3137 3141 3137 3136 3138 3141 3144 3149 3156 3156 3159 3158 3158 3160 3165 3165 3168 3173 3175 3178 3180 3183 3186 3188 3190 3192 3195 3196 3197 3197 3197 3197 3196 3196 3196 3195 3193 3192 3190 3188 3185 3182
3131 3135 3133 3135 3137 3135 3139 3143 3144 3146 3151 3155 3159 3155 3156 3158 3161 3162 3166 3172 3175 3177 3179 3181 3184 3186 3189 3191 3193 3194 3195 3195 3194 3194 3193 3193 3192 3191 3189 3187 3185 3182 3178 3175
3126 3129 3131 3132 3133 3134 3139 3141 3143 3146 3150 3152 3154 3155 3155 3158 3163 3165 3167 3172 3174 3176 3179 3181 3183 3185 3187 3189 3190 3191 3191 3190 3190 3190 3189 3188 3187 3186 3184 3182 3179 3176 3171 3167
3119 3122 3129 3132 3131 3135 3137 3140 3142 3147 3148 3150 3152 3153 3155 3159 3163 3166 3169 3170 3173 3175 3178 3181 3182 3184 3184 3185 3187 3187 3187 3187 3186 3185 3184 3182 3181 3179 3177 3176 3173 3169 3166 3162
3115 3119 3124 3127 3130 3133 3135 3138 3142 3144 3147 3149 3151 3153 3156 3158 3161 3163 3165 3168 3171 3173 3176 3179 3180 3182 3180 3182 3182 3182 3182 3182 3181 3180 3179 3177 3176 3173 3171 3168 3165 3161 3157 3152
3114 3118 3124 3127 3130 3132 3134 3136 3139 3142 3145 3148 3150 3153 3157 3159 3160 3162 3164 3166 3167 3169 3171 3174 3175 3175 3176 3178 3177 3177 3177 3177 3176 3174 3173 3172 3170 3168 3165 3161 3158 3155 3149 3144
Wind_Speed
20 19 21 18 11 6 3 3 4 2 2 5 6 8 12 16 17 16 16 17 16 17 16 16 15 14 15 13 12 12 10 9 9 9 8 6 4 3 2 4 2 3 2 2
20 26 19 16 12 9 7 7 8 2 2 2 4 5 11 16 18 19 18 18 18 18 19 19 18 16 15 14 12 11 11 10 10 9 8 6 6 3 7 7 2 1 1 1
25 16 19 19 17 15 14 13 3 2 6 9 7 9 11 16 19 20 19 17 17 19 20 20 20 19 16 17 14 11 10 10 11 11 10 8 5 5 5 4 2 2 1 2
22 21 15 22 19 16 17 13 9 9 10 14 4 10 18 18 20 22 21 21 19 20 19 20 19 17 17 17 13 12 12 10 10 12 11 9 9 7 5 3 6 7 4 4
20 20 18 21 20 18 19 8 9 10 13 18 17 13 23 13 18 17 20 22 21 20 19 19 18 16 16 16 16 12 12 12 11 10 11 11 12 10 7 6 9 7 6 5
20 15 19 20 18 21 18 18 15 15 17 19 18 15 15 9 12 8 13 20 22 21 20 17 17 18 16 17 17 14 11 10 11 10 11 11 11 12 9 9 7 6 3 7
20 21 15 16 18 20 19 18 18 16 16 15 15 4 8 13 8 6 3 11 22 22 19 20 19 19 20 20 14 13 8 8 9 10 10 11 12 12 12 10 9 7 4 4
20 21 21 16 20 19 21 21 23 11 12 19 7 6 8 11 2 1 3 12 18 20 19 20 19 19 20 16 11 9 7 7 6 9 11 12 12 12 12 11 11 9 4 6
17 21 16 19 16 20 20 22 23 28 28 11 8 5 12 6 5 3 2 13 18 20 20 20 19 19 18 15 13 11 10 8 9 8 8 10 12 12 12 12 11 12 10 12
13 12 18 17 14 18 21 12 20 23 13 15 10 12 6 5 7 5 5 13 16 18 20 19 20 20 19 19 16 16 14 11 10 8 11 14 12 13 13 13 12 12 12 11
22 11 18 15 20 19 17 18 18 20 19 14 11 13 5 7 8 9 9 13 14 16 18 18 19 21 21 20 18 16 16 10 6 5 17 19 14 17 15 13 12 13 13 12
23 14 20 17 18 18 19 20 19 18 17 11 14 20 7 3 6 9 9 14 16 14 14 18 19 20 22 23 23 15 14 6 5 9 11 16 17 20 11 11 11 14 14 13
20 19 18 21 15 18 19 19 22 21 18 20 14 3 4 4 8 7 11 13 11 15 16 18 20 25 24 24 22 10 8 7 8 11 11 6 4 7 7 9 12 13 14 14
17 18 19 15 18 17 20 24 21 21 22 18 14 16 4 9 10 7 12 12 14 11 7 15 20 21 25 19 14 12 11 9 12 12 11 9 8 10 10 13 14 15 17 18
16 19 19 20 8 8 15 16 24 23 22 21 14 4 8 15 13 9 13 14 14 9 9 10 12 17 17 14 16 14 13 12 11 12 13 14 14 16 17 18 18 19 21 22
17 20 18 18 8 12 13 13 21 20 19 18 14 9 8 9 11 9 16 16 15 12 8 8 11 21 16 14 14 12 11 8 6 8 11 14 18 20 20 20 21 23 24 26
19 21 19 19 16 13 16 17 15 16 18 17 15 6 4 7 5 13 18 17 17 16 11 12 22 21 18 15 12 10 8 4 7 13 12 14 13 18 24 26 27 28 29 31
16 20 15 20 19 13 17 7 14 18 17 16 15 6 3 7 4 15 17 19 19 16 15 18 21 18 16 14 12 9 5 7 12 10 9 13 14 16 17 19 21 23 25 27
19 18 19 20 21 12 19 12 16 15 18 17 21 14 9 8 13 17 18 19 18 15 16 19 19 22 18 12 10 4 7 13 12 5 4 5 7 9 11 13 15 18 21 24
19 20 23 18 16 15 16 7 8 15 9 15 9 14 14 16 17 18 20 20 19 16 17 17 22 20 18 14 10 4 10 12 6 9 9 9 8 8 8 10 11 13 15 18
20 23 24 18 17 17 4 4 6 13 6 12 6 10 16 14 17 23 23 21 17 17 17 19 18 18 15 11 5 3 7 2 4 6 11 13 14 16 17 19 20 22 24 24
21 22 21 19 17 12 7 6 5 6 19 11 9 9 11 15 13 21 22 21 19 15 20 17 18 18 15 12 9 6 5 4 7 12 16 19 21 23 25 25 27 30 32 34
23 24 19 17 4 6 5 5 10 7 11 12 12 12 10 12 16 18 19 17 11 15 18 17 19 17 15 14 10 9 9 11 13 14 16 19 23 25 27 30 31 34 36 35
23 12 14 13 10 8 12 10 13 13 12 6 5 6 11 17 18 17 15 15 17 17 17 17 17 16 18 17 14 14 15 15 18 20 21 23 26 30 33 33 35 37 34 39
9 17 14 6 5 12 12 9 14 13 12 9 8 9 14 14 13 12 14 15 16 18 15 16 16 16 21 17 20 21 20 22 24 26 25 26 28 32 35 37 38 41 42 37
8 8 13 16 16 14 16 14 17 14 13 11 12 15 14 14 13 12 13 17 17 19 20 20 20 24 22 21 22 23 24 26 27 27 26 27 31 33 36 33 33 30 30 32
Wind_Direction
219 219 222 224 238 342 84 54 157 147 75 191 198 194 186 188 188 192 190 193 193 192 194 202 192 196 193 193 188 187 187 177 166 165 170 183 165 221 206 226 204 258 318 20
215 222 222 225 227 237 218 239 170 197 258 259 218 245 196 199 193 195 194 196 196 198 201 201 203 203 204 207 203 197 196 188 191 185 195 198 174 227 226 246 172 140 173 161
217 226 221 224 229 231 230 244 302 246 295 261 247 240 211 206 196 195 197 202 199 200 200 207 208 203 210 215 213 205 201 192 203 207 206 220 227 234 236 267 190 188 267 213
226 220 227 223 231 223 240 235 246 262 271 290 252 254 233 198 199 195 199 202 205 200 203 204 205 207 209 215 210 212 216 211 208 214 218 224 228 226 260 224 255 268 259 246
225 222 226 227 226 226 238 277 252 250 261 267 256 266 172 194 200 197 198 206 203 209 203 199 204 213 207 216 218 228 228 230 226 214 222 225 226 230 235 226 233 244 251 238
216 223 225 233 230 230 237 250 252 251 259 269 271 234 134 246 164 187 206 204 206 205 202 203 200 208 210 213 210 225 233 233 233 223 223 226 232 234 234 240 247 243 285 297
228 228 238 228 230 226 231 232 244 238 237 249 254 233 204 201 179 143 192 208 202 202 204 200 197 198 207 203 211 220 225 220 222 226 230 233 240 245 245 243 238 236 204 263
215 218 226 226 219 220 224 226 237 227 245 249 218 190 248 135 143 145 347 192 186 192 200 204 200 199 201 205 208 203 196 197 205 224 229 236 243 246 248 244 238 225 225 263
236 228 226 215 227 215 223 226 235 262 281 264 235 188 221 256 264 322 140 181 182 187 192 200 203 202 202 211 212 208 212 211 213 227 247 254 250 245 244 240 235 231 228 221
246 259 209 215 218 221 231 254 225 243 270 282 231 257 255 188 240 213 207 181 189 192 195 201 202 203 205 205 212 211 214 223 238 265 283 311 272 251 235 237 235 228 234 243
220 234 221 210 218 218 219 229 231 241 227 248 255 249 212 194 232 237 203 177 191 194 199 198 204 203 207 203 199 249 223 240 284 250 334 282 284 263 245 235 234 239 240 243
212 229 232 217 224 224 224 225 236 226 242 265 301 295 316 213 250 213 202 182 194 186 205 200 207 203 199 201 213 237 223 257 293 266 312 302 257 227 234 242 237 244 250 251
207 224 242 217 208 214 232 231 229 236 237 246 274 300 162 255 196 183 179 182 209 196 197 198 201 208 198 213 228 213 205 231 237 256 266 317 83 191 220 236 239 243 249 249
203 220 240 239 213 222 219 229 233 243 258 247 247 255 197 209 196 177 174 167 168 170 210 179 191 193 204 219 212 199 199 221 228 248 257 269 243 235 231 235 240 246 251 251
207 228 232 239 261 226 236 229 224 232 241 265 262 240 234 210 180 174 170 165 164 156 161 192 197 196 186 182 192 204 217 227 248 259 265 266 267 252 245 246 252 257 258 262
219 235 235 235 227 233 235 242 215 218 231 239 255 271 109 140 160 165 169 167 161 159 163 178 181 179 187 193 203 204 210 214 241 268 268 260 259 264 262 260 262 265 267 267
215 221 222 219 223 223 236 228 225 232 224 234 256 210 145 163 233 174 170 165 161 162 175 183 180 186 180 178 182 194 191 217 306 326 285 263 254 253 258 263 266 266 270 272
216 224 207 226 210 223 241 231 222 220 224 233 242 228 193 235 201 172 170 167 169 180 180 184 189 191 186 190 193 191 223 296 324 323 271 263 265 265 267 271 275 277 277 276
216 219 232 229 213 224 234 235 239 236 241 248 234 233 214 216 170 171 171 173 180 189 192 194 201 196 185 173 185 215 290 327 344 359 358 335 316 302 295 289 285 285 284 284
214 215 225 229 258 292 235 209 212 226 240 254 219 208 197 169 174 176 175 169 176 178 184 194 200 183 201 206 214 269 337 352 52 63 52 41 23 7 351 345 338 333 320 311
204 212 223 212 243 225 153 194 191 223 124 193 197 183 179 181 207 182 168 169 170 178 187 193 197 193 187 191 191 297 357 65 5 4 6 355 347 342 341 339 336 333 331 326
196 203 216 230 241 241 208 228 185 98 152 177 206 170 164 159 159 164 165 166 171 184 175 202 187 200 206 210 225 259 284 299 325 327 331 331 331 330 328 326 326 327 326 323
200 208 236 232 221 206 171 131 157 133 179 187 209 223 163 158 168 164 163 170 191 189 186 188 190 217 219 221 232 255 265 286 306 309 312 310 314 313 314 317 316 316 322 326
206 219 214 233 246 241 193 240 174 164 187 179 198 196 155 154 163 165 179 184 182 183 188 190 194 206 217 231 238 249 266 280 291 296 300 304 307 306 308 310 310 310 309 308
205 200 211 236 214 225 220 225 177 176 206 212 209 171 156 157 160 167 179 177 179 194 192 195 200 211 230 239 246 258 269 278 284 288 294 297 297 297 304 307 307 306 306 305
244 226 222 238 246 227 223 192 182 169 214 211 193 158 154 153 165 180 184 174 190 197 207 209 219 229 243 246 253 261 270 275 280 285 287 286 293 296 300 301 300 301 299 301